Regional Weather Roundup
Issued by NWS

Home | Current Version | Previous Version | Graphics & Text | Print | Product List | Glossary Off
Versions: 1 2 3 4 5 6 7 8 9 10 11 12 13 14 15 16 17 18 19 20 21 22 23 24 25 26 27 28 29 30 31 32 33 34 35 36 37 38 39 40 41 42 43 44 45 46 47 48 49 50

000
ASUS43 KTOP 220859
RWRKS

WEATHER ROUNDUP FOR KANSAS
NATIONAL WEATHER SERVICE GOODLAND KS
400 AM CDT FRI AUG 22 2014

NOTE:  "FAIR" INDICATES FEW OR NO CLOUDS BELOW 12,000 FEET WITH NO
SIGNIFICANT WEATHER AND/OR OBSTRUCTIONS TO VISIBILITY.

KSZ001>006-013>018-027>032-041>047-221000-
NORTHWEST KANSAS

CITY           SKY/WX    TMP DP  RH WIND       PRES   REMARKS
GOODLAND       PTCLDY    64  57  78 CALM      30.00F
HAYS           PTCLDY    79  64  61 S12       29.88S
HILL CITY      CLEAR     71  66  84 N6        29.89F
RUSSELL        PTCLDY    79  66  64 S10       29.86S
$$

KSZ061>065-074>080-084>089-221000-
SOUTHWEST KANSAS

CITY           SKY/WX    TMP DP  RH WIND       PRES   REMARKS
DODGE CITY     MOCLDY    78  64  61 S8        29.93S
ELKHART          N/A     71  60  68 W3          N/A
GARDEN CITY    PTCLDY    71  62  73 SE6       29.94R
GREAT BEND     CLOUDY    81  66  61 S10       29.88S
LIBERAL        PTCLDY    75  61  60 S8        29.96S
$$

KSZ066>073-081>083-090>101-221000-
SOUTHEAST KANSAS

CITY           SKY/WX    TMP DP  RH WIND       PRES   REMARKS
CHANUTE        CLEAR     79  70  74 S10       29.94S
COFFEYVILLE    CLEAR     79  71  76 S13       29.93F
HUTCHINSON     PTCLDY    81  69  67 S10       29.89F
NEWTON         CLEAR     81  64  57 S16       29.93S
PARSONS        CLEAR     78  70  76 S5        29.95S
WICHITA INTL   PTCLDY    79  68  69 S10       29.90F
WICHITA JABRA  CLEAR     80  68  66 S14       29.90F
WINFIELD       CLEAR     79  68  69 S14       29.92F
$$

KSZ007>012-019>026-033>040-048>060-102>105-221000-
NORTHEAST KANSAS

CITY           SKY/WX    TMP DP  RH WIND       PRES   REMARKS
CONCORDIA      PTCLDY    77  72  84 S14       29.86S
EMPORIA        CLEAR     78  70  76 S13       29.90S
LAWRENCE       CLOUDY    80  71  74 SE6       29.92R
MANHATTAN      MOCLDY    81  71  71 S7        29.86S
OLATHE IND     MOCLDY    78  71  79 S6        29.94R
OLATHE EXE     MOCLDY    78  71  79 S8        29.93R
SALINA         MOCLDY    83  71  67 S10       29.87S
TOPEKA BILLARD CLOUDY    83  73  72 CALM      29.90R
TOPEKA FORBES  CLOUDY    80  71  74 S9        29.90S
$$



USA.gov is the U.S. government's official web portal to all federal, state and local government web resources and services.